Location: Unspecified
(22.6800°N, 112.2000°E)
Time: 04:20:12
(UTC+08:00)

S-56A Canister/Altair - Pass Details

Date: 30 July 2021
Orbit: 632 x 2500 km, 38.9° (Epoch: 27 September)

Event Time Altitude Azimuth Distance (km) Brightness Sun altitude
Rises 20:32:11 0° 301° (WNW) 6,176 13.9 -17.3°
Reaches altitude 10° 20:36:34 10° 306° (NW) 5,114 13.0 -18.2°
Maximum altitude 20:50:43 54° 21° (NNE) 2,441 10.0 -21.0°
Enters shadow 20:58:00 24° 87° (E) 3,125 10.1 -22.4°
Drops below altitude 10° 21:01:06 10° 96° (E) 3,849 - -23.0°
Sets 21:03:54 0° 102° (ESE) 4,600 - -23.6°
